Wind_Speed
13 12 12 10 9 10 11 12 14 14 14 14 13 13 13 13 14 14 13 12 12 10 10 8 9 10 11 11 10 11 12 13 15 13 13 12 11 13 12 10 12 13 12
9 11 14 12 10 9 10 11 12 13 14 14 14 14 13 13 13 13 12 11 10 9 9 9 9 10 11 10 11 13 12 13 15 14 15 13 12 12 13 14 13 15 14
6 8 12 13 11 10 10 10 11 11 13 13 14 14 13 13 12 12 12 11 10 9 9 10 11 10 11 11 11 12 12 13 12 13 14 16 13 13 14 14 14 14 13
6 8 6 10 12 12 11 11 11 11 11 11 12 13 13 13 12 11 11 11 10 10 11 11 11 11 12 11 13 12 11 11 11 10 13 16 14 11 12 12 12 11 11
5 9 8 9 8 11 11 12 11 11 11 10 11 11 12 13 13 12 11 10 10 10 12 12 12 12 13 12 13 12 10 11 12 9 13 15 13 12 9 9 10 11 10
11 10 7 9 9 10 13 13 12 12 11 12 9 10 12 11 11 12 11 11 11 11 12 12 13 12 12 11 12 11 10 10 8 10 13 13 11 10 8 8 7 8 9
5 9 7 8 10 11 12 13 13 12 11 12 9 8 8 10 10 10 11 11 11 10 11 12 13 12 12 11 11 10 9 7 9 13 13 10 9 8 7 6 5 5 6
4 5 5 10 12 12 12 13 14 13 12 11 11 8 8 8 11 10 9 10 10 10 10 11 12 13 13 10 9 9 7 6 9 12 12 9 8 6 6 5 4 4 4
17 19 13 14 14 13 14 15 15 14 13 12 12 11 9 7 9 10 9 10 9 8 9 10 11 12 12 10 9 7 7 6 9 11 14 11 7 5 4 3 3 3 3
6 21 19 16 18 16 15 16 16 15 15 14 12 11 10 9 9 9 8 8 9 8 8 9 10 10 10 10 9 7 6 4 6 10 10 11 7 4 2 1 2 2 2
9 14 17 12 19 16 15 16 17 16 15 14 12 11 11 11 9 8 7 7 7 7 8 8 8 8 9 9 9 8 7 6 5 7 9 7 6 4 3 2 3 3 2
12 12 14 14 10 16 17 16 16 17 16 15 14 12 11 10 9 9 7 8 8 8 8 8 8 8 9 9 9 9 6 3 3 5 5 3 2 3 3 3 3 3 3
13 14 16 18 7 12 19 18 15 15 16 15 15 15 13 11 10 9 10 8 8 9 9 8 8 8 9 9 8 8 8 8 9 3 5 5 4 4 3 3 4 4 3
12 11 13 16 17 4 18 16 19 18 16 16 15 15 14 14 12 11 10 10 11 10 10 10 9 9 9 9 10 10 9 8 6 7 10 5 4 5 5 4 5 4 3
10 9 10 11 14 13 2 18 20 20 18 18 17 16 15 14 13 12 13 12 11 12 12 11 9 10 9 9 10 10 10 11 9 6 7 6 7 10 10 9 8 7 7
9 9 10 8 9 11 12 2 17 23 17 19 20 18 16 16 16 15 15 14 16 15 14 12 12 10 10 8 7 9 13 12 9 12 10 11 14 12 11 12 11 12 11
7 7 10 10 8 10 12 13 5 13 19 15 15 16 19 19 19 18 18 18 16 14 13 12 13 13 12 11 11 10 11 12 13 12 10 14 14 11 12 13 14 15 14
6 6 8 7 9 10 10 10 11 7 8 9 12 15 19 19 17 20 19 21 18 17 14 15 12 9 11 12 12 14 16 15 15 16 13 14 13 13 13 13 14 15 15
6 7 7 6 7 8 7 6 6 5 3 4 7 11 14 18 21 21 21 23 23 21 19 16 15 14 13 12 14 16 17 16 14 14 14 16 16 16 17 15 18 15 16
5 5 7 7 7 6 5 3 1 1 1 4 7 9 12 16 18 22 24 25 22 21 19 17 16 15 18 19 17 18 21 19 17 17 14 15 18 21 21 22 24 15 18
4 4 5 7 6 5 6 5 4 2 2 3 7 11 11 13 18 20 27 29 26 25 25 22 20 18 18 20 21 19 18 24 16 19 20 23 22 24 20 24 24 16 19
3 4 5 5 6 7 7 7 6 6 4 4 6 8 11 12 14 18 20 24 28 31 31 29 25 23 23 24 22 19 21 19 24 21 23 24 26 24 24 22 19 19 16
13 6 5 5 7 8 9 8 8 10 8 8 7 9 14 11 11 10 18 19 20 21 22 26 28 24 20 25 27 23 23 20 19 21 19 21 22 19 12 13 16 16 17
17 10 6 4 6 8 10 8 9 10 9 8 7 9 9 8 7 5 10 17 19 19 17 18 20 21 19 18 24 26 26 23 21 21 18 17 17 15 13 11 13 16 17
16 17 8 4 5 9 11 9 10 9 7 9 7 7 4 6 4 3 3 8 16 15 19 17 18 19 22 24 24 26 28 27 18 18 16 13 13 17 16 13 14 15 15
11 14 8 4 3 7 10 8 10 12 11 7 6 4 1 2 1 2 2 1 5 10 14 15 17 17 18 19 21 19 19 19 17 19 15 13 15 7 8 17 15 14 14
Wind_Direction
164 148 143 144 146 141 131 123 121 125 123 118 112 116 121 127 131 132 131 131 130 133 133 121 112 113 117 113 119 111 107 106 107 106 107 104 104 102 98 112 119 112 111
174 153 149 149 149 146 141 127 121 122 118 119 115 111 113 119 122 126 132 139 138 137 134 131 120 124 118 119 125 114 116 110 115 117 115 110 108 107 111 115 119 110 110
183 163 161 153 150 149 148 139 123 122 122 121 114 108 110 111 118 122 125 132 138 140 134 136 122 127 116 127 127 114 116 116 121 123 122 116 111 108 112 116 113 111 113
231 173 173 161 156 154 150 145 134 130 139 123 121 114 108 107 109 116 124 127 127 133 131 129 124 123 121 133 128 126 120 121 121 121 124 120 115 112 111 116 113 114 122
181 175 180 178 172 159 154 152 149 141 144 139 129 122 114 111 110 108 114 113 120 125 130 127 129 120 128 136 131 127 122 122 117 133 140 121 116 114 109 108 114 123 126
165 158 190 182 184 183 166 161 159 153 148 145 140 130 119 109 108 106 108 110 111 122 129 132 131 127 130 134 130 124 124 138 141 123 123 121 126 122 117 116 123 125 125
157 153 173 197 195 192 187 170 167 165 163 151 147 150 139 120 127 121 111 113 112 119 131 136 132 132 132 133 131 129 125 125 131 127 116 127 132 127 125 123 119 127 131
209 132 205 213 204 201 194 188 174 176 174 161 159 164 152 141 141 135 129 117 113 122 133 138 137 139 134 128 133 124 119 117 145 130 117 129 134 131 127 126 114 128 140
154 37 216 208 205 201 198 196 188 179 180 175 169 165 165 160 144 143 134 127 124 126 131 139 140 145 144 138 139 134 115 107 139 134 129 130 124 124 123 132 129 136 137
323 349 36 215 191 193 198 196 196 187 180 182 178 171 168 167 170 164 156 142 134 132 133 138 145 150 148 146 144 139 122 138 179 130 146 133 126 124 124 165 156 178 172
9 18 19 28 184 189 197 202 198 196 185 181 186 180 179 177 181 179 174 166 154 148 150 147 145 150 157 158 154 147 144 151 162 141 147 132 143 154 178 212 224 221 225
42 45 42 43 186 201 193 201 203 202 193 187 186 189 196 190 188 182 182 176 175 175 171 166 159 158 167 173 174 164 162 181 154 205 173 178 159 185 207 234 242 240 238
56 50 46 45 51 208 205 198 203 210 203 198 192 189 197 205 204 193 192 190 188 188 187 183 185 183 186 185 187 183 179 180 205 173 207 195 202 211 207 234 247 247 247
38 51 48 52 57 140 199 203 209 209 213 207 199 202 199 205 211 209 215 210 203 202 193 187 199 206 208 212 198 206 192 205 198 221 193 225 229 248 238 235 256 262 265
43 44 50 51 49 54 133 222 224 222 213 216 211 208 209 211 216 217 224 228 223 213 204 201 201 209 219 219 211 205 218 216 215 240 192 220 239 246 255 250 238 245 253
45 42 42 51 47 43 41 29 220 217 217 217 219 218 217 217 214 219 226 228 227 218 212 211 212 218 219 223 235 223 217 223 235 252 222 261 243 268 254 255 256 258 261
35 39 44 29 38 33 43 50 136 194 218 240 224 233 233 236 238 227 232 235 236 224 224 216 223 224 233 236 244 247 239 237 238 256 247 255 259 257 258 255 260 262 259
19 46 37 36 29 20 38 49 73 113 186 208 222 233 241 238 242 247 241 242 239 235 229 224 227 219 236 245 246 253 251 239 240 225 244 258 284 272 257 262 254 263 271
6 16 34 28 23 26 23 35 59 94 147 215 238 250 251 248 239 244 242 244 238 238 221 232 228 226 243 252 254 255 255 246 252 262 278 266 280 280 277 272 252 266 261
345 351 6 21 20 14 11 5 63 82 203 261 269 264 256 258 255 237 233 237 237 239 238 234 234 238 250 257 257 263 264 254 255 267 272 284 277 282 275 273 267 260 266
326 312 335 2 7 2 2 347 318 276 276 261 279 279 277 274 269 249 232 230 233 239 241 243 245 245 247 255 259 264 264 263 267 267 268 280 277 276 283 269 273 268 272
297 287 290 334 354 357 354 348 313 296 287 284 280 289 285 285 282 246 241 233 230 236 245 253 251 250 250 244 251 261 259 253 267 266 275 280 278 270 270 258 268 262 265
266 335 273 317 341 358 357 337 334 329 328 322 307 295 305 293 288 258 233 235 231 229 240 247 252 249 250 238 247 252 261 262 269 269 274 275 275 270 239 233 252 270 278
263 292 268 289 323 355 357 337 335 337 321 303 313 304 290 291 297 279 246 228 226 222 236 235 244 244 245 242 250 257 261 263 265 266 270 272 278 274 257 257 268 276 279
251 262 262 285 323 349 352 349 338 329 326 329 342 333 277 288 298 328 289 241 218 224 230 246 254 251 258 253 261 255 254 262 253 266 261 261 285 256 247 261 270 275 275
244 251 237 256 312 348 347 353 347 345 348 3 3 18 348 276 330 4 359 127 214 224 238 242 248 251 259 255 254 261 251 243 249 258 250 254 273 246 242 263 277 279 279
Height
3169 3170 3171 3173 3175 3176 3176 3177 3178 3178 3179 3179 3180 3181 3182 3183 3183 3183 3184 3186 3187 3188 3189 3190 3190 3191 3192 3193 3195 3196 3196 3196 3196 3198 3199 3200 3201 3201 3202 3203 3204 3205 3206
3173 3172 3171 3173 3174 3176 3177 3178 3178 3179 3179 3180 3181 3181 3183 3183 3184 3184 3185 3187 3188 3189 3189 3191 3191 3193 3193 3195 3197 3197 3197 3198 3199 3200 3200 3202 3203 3203 3203 3204 3206 3206 3207
3175 3174 3173 3173 3174 3176 3177 3178 3179 3179 3180 3181 3181 3182 3183 3184 3185 3186 3186 3187 3189 3190 3190 3191 3192 3194 3194 3196 3197 3198 3199 3199 3200 3201 3201 3202 3204 3205 3206 3206 3207 3208 3209
3177 3177 3177 3176 3175 3176 3178 3178 3179 3180 3181 3182 3183 3184 3185 3186 3187 3187 3188 3189 3189 3190 3191 3192 3194 3195 3196 3198 3198 3198 3199 3200 3202 3203 3204 3204 3205 3207 3208 3209 3209 3210 3211
3176 3177 3177 3176 3177 3178 3178 3179 3180 3181 3182 3184 3185 3185 3186 3186 3188 3189 3189 3190 3190 3191 3192 3193 3195 3196 3198 3199 3199 3199 3200 3202 3203 3204 3205 3205 3207 3209 3211 3211 3212 3212 3213
3175 3176 3178 3176 3177 3177 3178 3180 3181 3181 3183 3184 3186 3186 3186 3188 3189 3190 3191 3191 3191 3192 3193 3194 3196 3197 3199 3200 3200 3200 3201 3202 3203 3204 3205 3207 3209 3211 3212 3213 3214 3214 3214
3175 3176 3176 3177 3177 3177 3178 3179 3181 3181 3183 3183 3185 3187 3188 3187 3189 3190 3192 3192 3192 3194 3195 3196 3197 3198 3200 3202 3201 3201 3203 3203 3204 3205 3206 3209 3211 3212 3213 3214 3215 3215 3215
3179 3176 3172 3174 3175 3176 3178 3179 3180 3181 3183 3184 3184 3187 3188 3188 3190 3191 3193 3194 3194 3195 3196 3197 3198 3199 3201 3203 3203 3203 3204 3205 3206 3206 3207 3210 3212 3213 3214 3214 3215 3216 3217
3157 3170 3165 3169 3172 3174 3176 3179 3179 3181 3183 3184 3185 3187 3189 3190 3190 3191 3193 3194 3195 3196 3197 3198 3199 3200 3202 3203 3204 3205 3206 3207 3207 3209 3208 3210 3212 3213 3214 3215 3215 3216 3217
3165 3164 3166 3166 3167 3170 3174 3177 3179 3180 3181 3184 3185 3186 3189 3190 3191 3192 3193 3194 3195 3196 3198 3199 3200 3201 3203 3204 3204 3205 3207 3208 3209 3210 3211 3210 3212 3214 3215 3216 3216 3217 3218
3170 3169 3166 3163 3167 3169 3173 3176 3178 3180 3181 3183 3184 3186 3188 3190 3191 3193 3194 3194 3195 3197 3198 3199 3200 3202 3204 3205 3205 3206 3207 3208 3210 3211 3211 3212 3212 3213 3215 3216 3217 3218 3218
3171 3171 3169 3167 3166 3169 3170 3175 3177 3180 3181 3182 3183 3185 3187 3189 3191 3192 3193 3194 3195 3196 3198 3199 3200 3202 3203 3204 3205 3206 3207 3208 3209 3210 3211 3212 3214 3214 3215 3216 3218 3218 3219
3173 3172 3170 3167 3166 3168 3170 3172 3175 3179 3180 3181 3182 3183 3186 3189 3190 3191 3192 3194 3195 3196 3197 3198 3200 3201 3202 3204 3205 3206 3206 3207 3208 3210 3211 3212 3213 3213 3215 3216 3217 3218 3218
3173 3173 3173 3172 3170 3169 3171 3172 3173 3175 3178 3180 3181 3182 3184 3186 3188 3190 3191 3192 3193 3194 3195 3196 3198 3199 3201 3203 3203 3205 3206 3207 3208 3209 3210 3212 3212 3213 3214 3215 3216 3217 3218
3174 3174 3173 3171 3171 3170 3170 3171 3172 3173 3175 3178 3179 3180 3182 3184 3186 3187 3188 3190 3191 3192 3194 3195 3196 3197 3199 3200 3203 3203 3205 3206 3207 3206 3208 3210 3211 3212 3213 3214 3214 3215 3216
3174 3174 3173 3172 3172 3171 3169 3168 3169 3171 3173 3175 3177 3179 3181 3182 3183 3185 3186 3187 3189 3190 3191 3192 3194 3196 3197 3198 3200 3201 3203 3203 3204 3204 3206 3206 3209 3210 3211 3212 3212 3212 3213
3174 3173 3173 3172 3171 3170 3168 3167 3167 3168 3171 3174 3175 3178 3179 3181 3182 3182 3183 3185 3186 3188 3190 3190 3191 3193 3196 3197 3199 3199 3201 3201 3202 3203 3204 3206 3207 3209 3209 3209 3210 3210 3210
3175 3174 3173 3172 3171 3171 3169 3168 3167 3169 3169 3171 3174 3177 3176 3178 3179 3180 3182 3184 3186 3187 3189 3188 3189 3191 3193 3195 3197 3198 3199 3199 3200 3202 3202 3203 3204 3204 3205 3206 3206 3207 3208
3173 3174 3173 3172 3171 3169 3169 3168 3167 3168 3169 3170 3172 3173 3174 3174 3175 3177 3180 3182 3182 3186 3187 3186 3186 3188 3190 3192 3194 3194 3196 3197 3198 3198 3200 3200 3200 3199 3200 3200 3201 3203 3204
3172 3173 3172 3171 3170 3169 3168 3169 3168 3167 3168 3168 3168 3169 3169 3169 3168 3171 3174 3176 3175 3182 3184 3182 3182 3184 3187 3189 3190 3191 3191 3193 3194 3195 3197 3196 3195 3196 3196 3195 3197 3197 3197
3171 3171 3171 3170 3169 3169 3168 3167 3167 3167 3167 3166 3166 3165 3164 3164 3162 3163 3167 3170 3174 3177 3178 3178 3179 3180 3184 3184 3186 3187 3189 3190 3191 3192 3193 3191 3191 3191 3191 3187 3191 3190 3192
3171 3170 3170 3170 3169 3168 3167 3166 3166 3166 3165 3165 3164 3162 3161 3160 3159 3156 3158 3163 3166 3169 3171 3172 3174 3176 3178 3179 3181 3183 3184 3186 3187 3187 3188 3186 3184 3187 3186 3185 3186 3186 3187
3169 3169 3169 3168 3167 3166 3165 3164 3163 3163 3161 3160 3159 3158 3157 3156 3155 3153 3154 3155 3158 3162 3165 3167 3169 3171 3172 3173 3175 3177 3178 3181 3182 3181 3183 3183 3180 3179 3179 3180 3181 3182 3183
3167 3167 3167 3166 3165 3164 3163 3162 3161 3160 3159 3159 3157 3155 3154 3153 3152 3151 3151 3152 3155 3158 3162 3164 3165 3166 3168 3171 3170 3171 3173 3174 3176 3177 3179 3179 3176 3177 3176 3172 3178 3178 3177
3163 3165 3164 3164 3163 3162 3161 3159 3158 3158 3157 3155 3153 3153 3152 3151 3151 3150 3150 3150 3150 3154 3158 3160 3161 3162 3163 3165 3166 3166 3167 3168 3169 3172 3174 3174 3173 3172 3174 3174 3173 3175 3175
3160 3161 3162 3161 3161 3160 3159 3157 3155 3153 3153 3152 3151 3151 3151 3151 3150 3150 3149 3150 3151 3153 3155 3155 3156 3157 3158 3158 3160 3160 3162 3164 3165 3166 3169 3169 3169 3168 3170 3171 3171 3171 3170